Year,Month,Day,Hour,Minute,Value (Times are PST for temperature in C)
2013,10,23,00,00,6.40
2013,10,23,00,01,6.40
2013,10,23,00,02,6.40
2013,10,23,00,03,6.40
2013,10,23,00,04,6.30
2013,10,23,00,05,6.30
2013,10,23,00,06,6.30
2013,10,23,00,07,6.30
2013,10,23,00,08,6.30
2013,10,23,00,09,6.30
2013,10,23,00,10,6.30
2013,10,23,00,11,6.30
2013,10,23,00,12,6.30
2013,10,23,00,13,6.30
2013,10,23,00,14,6.30
2013,10,23,00,15,6.30
2013,10,23,00,16,6.30
2013,10,23,00,17,6.20
2013,10,23,00,18,6.30
2013,10,23,00,19,6.20
2013,10,23,00,20,6.20
2013,10,23,00,21,6.20
2013,10,23,00,22,6.20
2013,10,23,00,23,6.20
2013,10,23,00,24,6.20
2013,10,23,00,25,6.20
2013,10,23,00,26,6.20
2013,10,23,00,27,6.20
2013,10,23,00,28,6.20
2013,10,23,00,29,6.20
2013,10,23,00,30,6.20
2013,10,23,00,31,6.20
2013,10,23,00,32,6.20
2013,10,23,00,33,6.20
2013,10,23,00,34,6.20
2013,10,23,00,35,6.20
2013,10,23,00,36,6.20
2013,10,23,00,37,6.20
2013,10,23,00,38,6.20
2013,10,23,00,39,6.20
2013,10,23,00,40,6.20
2013,10,23,00,41,6.20
2013,10,23,00,42,6.10
2013,10,23,00,43,6.10
2013,10,23,00,44,6.10
2013,10,23,00,45,6.10
2013,10,23,00,46,6.10
2013,10,23,00,47,6.10
2013,10,23,00,48,6.10
2013,10,23,00,49,6.10
2013,10,23,00,50,6.10
2013,10,23,00,51,6.10
2013,10,23,00,52,6.10
2013,10,23,00,53,6.10
2013,10,23,00,54,6.10
2013,10,23,00,55,6.10
2013,10,23,00,56,6.10
2013,10,23,00,57,6.10
2013,10,23,00,58,6.10
2013,10,23,00,59,6.10
2013,10,23,01,00,6.10
2013,10,23,01,01,6.10
2013,10,23,01,02,6.10
2013,10,23,01,03,6.10
2013,10,23,01,04,6.10
2013,10,23,01,05,6.10
2013,10,23,01,06,6.10
2013,10,23,01,07,6.10
2013,10,23,01,08,6.00
2013,10,23,01,09,6.00
2013,10,23,01,10,6.00
2013,10,23,01,11,6.00
2013,10,23,01,12,6.00
2013,10,23,01,13,6.00
2013,10,23,01,14,5.90
2013,10,23,01,15,5.90
2013,10,23,01,16,5.90
2013,10,23,01,17,5.90
2013,10,23,01,18,5.90
2013,10,23,01,19,5.90
2013,10,23,01,20,5.90
2013,10,23,01,21,5.80
2013,10,23,01,22,5.80
2013,10,23,01,23,5.80
2013,10,23,01,24,5.80
2013,10,23,01,25,5.80
2013,10,23,01,26,5.70
2013,10,23,01,27,5.70
2013,10,23,01,28,5.70
2013,10,23,01,29,5.70
2013,10,23,01,30,5.70
2013,10,23,01,31,5.70
2013,10,23,01,32,5.60
2013,10,23,01,33,5.60
2013,10,23,01,34,5.60
2013,10,23,01,35,5.60
2013,10,23,01,36,5.60
2013,10,23,01,37,5.60
2013,10,23,01,38,5.50
2013,10,23,01,39,5.50
2013,10,23,01,40,5.50
2013,10,23,01,41,5.50
2013,10,23,01,42,5.40
2013,10,23,01,43,5.40
2013,10,23,01,44,5.40
2013,10,23,01,45,5.40
2013,10,23,01,46,5.40
2013,10,23,01,47,5.30
2013,10,23,01,48,5.30
2013,10,23,01,49,5.30
2013,10,23,01,50,5.30
2013,10,23,01,51,5.30
2013,10,23,01,52,5.30
2013,10,23,01,53,5.30
2013,10,23,01,54,5.20
2013,10,23,01,55,5.20
2013,10,23,01,56,5.20
2013,10,23,01,57,5.20
2013,10,23,01,58,5.20
2013,10,23,01,59,5.20
2013,10,23,02,00,5.20
2013,10,23,02,01,5.10
2013,10,23,02,02,5.10
2013,10,23,02,03,5.10
2013,10,23,02,04,5.10
2013,10,23,02,05,5.00
2013,10,23,02,06,5.00
2013,10,23,02,07,5.00
2013,10,23,02,08,4.90
2013,10,23,02,09,4.90
2013,10,23,02,10,4.90
2013,10,23,02,11,4.90
2013,10,23,02,12,4.80
2013,10,23,02,13,4.80
2013,10,23,02,14,4.80
2013,10,23,02,15,4.80
2013,10,23,02,16,4.80
2013,10,23,02,17,4.80
2013,10,23,02,18,4.80
2013,10,23,02,19,4.80
2013,10,23,02,20,4.70
2013,10,23,02,21,4.70
2013,10,23,02,22,4.70
2013,10,23,02,23,4.70
2013,10,23,02,24,4.70
2013,10,23,02,25,4.70
2013,10,23,02,26,4.70
2013,10,23,02,27,4.60
2013,10,23,02,28,4.60
2013,10,23,02,29,4.60
2013,10,23,02,30,4.60
2013,10,23,02,31,4.60
2013,10,23,02,32,4.50
2013,10,23,02,33,4.50
2013,10,23,02,34,4.50
2013,10,23,02,35,4.50
2013,10,23,02,36,4.50
2013,10,23,02,37,4.50
2013,10,23,02,38,4.40
2013,10,23,02,39,4.40
2013,10,23,02,40,4.40
2013,10,23,02,41,4.40
2013,10,23,02,42,4.40
2013,10,23,02,43,4.40
2013,10,23,02,44,4.40
2013,10,23,02,45,4.40
2013,10,23,02,46,4.40
2013,10,23,02,47,4.40
2013,10,23,02,48,4.40
2013,10,23,02,49,4.40
2013,10,23,02,50,4.40
2013,10,23,02,51,4.40
2013,10,23,02,52,4.40
2013,10,23,02,53,4.40
2013,10,23,02,54,4.40
2013,10,23,02,55,4.40
2013,10,23,02,56,4.40
2013,10,23,02,57,4.40
2013,10,23,02,58,4.40
2013,10,23,02,59,4.30
2013,10,23,03,00,4.30
2013,10,23,03,01,4.30
2013,10,23,03,02,4.30
2013,10,23,03,03,4.40
2013,10,23,03,06,4.40
2013,10,23,03,07,4.40
2013,10,23,03,08,4.40
2013,10,23,03,09,4.40
2013,10,23,03,10,4.40
2013,10,23,03,11,4.40
2013,10,23,03,12,4.40
2013,10,23,03,13,4.30
2013,10,23,03,14,4.30
2013,10,23,03,15,4.30
2013,10,23,03,16,4.30
2013,10,23,03,17,4.30
2013,10,23,03,18,4.30
2013,10,23,03,19,4.30
2013,10,23,03,20,4.30
2013,10,23,03,21,4.30
2013,10,23,03,22,4.20
2013,10,23,03,23,4.20
2013,10,23,03,24,4.20
2013,10,23,03,25,4.20
2013,10,23,03,26,4.20
2013,10,23,03,27,4.20
2013,10,23,03,28,4.20
2013,10,23,03,29,4.20
2013,10,23,03,30,4.20
2013,10,23,03,31,4.20
2013,10,23,03,32,4.20
2013,10,23,03,33,4.20
2013,10,23,03,34,4.10
2013,10,23,03,35,4.10
2013,10,23,03,36,4.10
2013,10,23,03,37,4.10
2013,10,23,03,38,4.10
2013,10,23,03,39,4.10
2013,10,23,03,40,4.10
2013,10,23,03,41,4.10
2013,10,23,03,42,4.10
2013,10,23,03,43,4.10
2013,10,23,03,44,4.10
2013,10,23,03,45,4.10
2013,10,23,03,46,4.10
2013,10,23,03,47,4.10
2013,10,23,03,48,4.10
2013,10,23,03,49,4.10
2013,10,23,03,50,4.10
2013,10,23,03,51,4.10
2013,10,23,03,52,4.00
2013,10,23,03,53,4.00
2013,10,23,03,54,4.00
2013,10,23,03,55,4.00
2013,10,23,03,56,4.00
2013,10,23,03,57,4.00
2013,10,23,03,58,4.00
2013,10,23,03,59,4.00
2013,10,23,04,00,4.00
2013,10,23,04,01,4.00
2013,10,23,04,02,4.10
2013,10,23,04,03,4.10
2013,10,23,04,04,4.10
2013,10,23,04,05,4.10
2013,10,23,04,06,4.10
2013,10,23,04,07,4.10
2013,10,23,04,08,4.00
2013,10,23,04,09,4.00
2013,10,23,04,10,4.00
2013,10,23,04,11,4.00
2013,10,23,04,12,4.10
2013,10,23,04,13,4.10
2013,10,23,04,14,4.10
2013,10,23,04,15,4.10
2013,10,23,04,16,4.00
2013,10,23,04,17,4.00
2013,10,23,04,18,4.00
2013,10,23,04,19,4.00
2013,10,23,04,20,4.00
2013,10,23,04,21,4.00
2013,10,23,04,22,3.90
2013,10,23,04,23,3.90
2013,10,23,04,24,3.90
2013,10,23,04,25,3.90
2013,10,23,04,26,3.90
2013,10,23,04,27,3.90
2013,10,23,04,28,3.90
2013,10,23,04,29,3.90
2013,10,23,04,30,3.90
2013,10,23,04,31,3.90
2013,10,23,04,32,3.90
2013,10,23,04,33,3.90
2013,10,23,04,34,3.90
2013,10,23,04,35,3.90
2013,10,23,04,36,3.90
2013,10,23,04,37,3.90
2013,10,23,04,38,3.90
2013,10,23,04,39,3.90
2013,10,23,04,40,3.90
2013,10,23,04,41,3.90
2013,10,23,04,42,3.90
2013,10,23,04,43,3.90
2013,10,23,04,44,3.90
2013,10,23,04,45,3.90
2013,10,23,04,46,3.90
2013,10,23,04,47,3.90
2013,10,23,04,48,3.90
2013,10,23,04,49,3.90
2013,10,23,04,50,3.90
2013,10,23,04,51,3.80
2013,10,23,04,52,3.80
2013,10,23,04,53,3.80
2013,10,23,04,54,3.80
2013,10,23,04,55,3.90
2013,10,23,04,56,3.90
2013,10,23,04,57,3.90
2013,10,23,04,58,3.90
2013,10,23,04,59,3.90
2013,10,23,05,00,3.90
2013,10,23,05,01,3.90
2013,10,23,05,02,3.90
2013,10,23,05,03,4.00
2013,10,23,05,04,4.00
2013,10,23,05,05,4.00
2013,10,23,05,06,4.10
2013,10,23,05,07,4.00
2013,10,23,05,08,4.00
2013,10,23,05,09,4.00
2013,10,23,05,10,4.00
2013,10,23,05,11,4.00
2013,10,23,05,12,4.10
2013,10,23,05,13,4.10
2013,10,23,05,14,4.10
2013,10,23,05,15,4.10
2013,10,23,05,16,4.10
2013,10,23,05,17,4.10
2013,10,23,05,18,4.10
2013,10,23,05,19,4.10
2013,10,23,05,20,4.10
2013,10,23,05,21,4.10
2013,10,23,05,22,4.10
2013,10,23,05,23,4.10
2013,10,23,05,24,4.10
2013,10,23,05,25,4.10
2013,10,23,05,26,4.10
2013,10,23,05,27,4.10
2013,10,23,05,28,4.10
2013,10,23,05,29,4.00
2013,10,23,05,30,4.10
2013,10,23,05,31,4.00
2013,10,23,05,32,4.00
2013,10,23,05,33,4.00
2013,10,23,05,34,4.00
2013,10,23,05,35,4.00
2013,10,23,05,36,4.00
2013,10,23,05,37,4.00
2013,10,23,05,38,4.00
2013,10,23,05,39,4.10
2013,10,23,05,40,4.10
2013,10,23,05,41,4.10
2013,10,23,05,42,4.10
2013,10,23,05,43,4.10
2013,10,23,05,44,4.10
2013,10,23,05,45,4.10
2013,10,23,05,46,4.10
2013,10,23,05,47,4.10
2013,10,23,05,48,4.10
2013,10,23,05,49,4.10
2013,10,23,05,50,4.10
2013,10,23,05,51,4.00
2013,10,23,05,52,4.00
2013,10,23,05,53,4.10
2013,10,23,05,54,4.10
2013,10,23,05,55,4.00
2013,10,23,05,56,4.10
2013,10,23,05,57,4.10
2013,10,23,05,58,4.10
2013,10,23,05,59,4.10
2013,10,23,06,00,4.10
2013,10,23,06,01,4.00
2013,10,23,06,02,4.00
2013,10,23,06,03,4.00
2013,10,23,06,04,4.00
2013,10,23,06,05,4.00
2013,10,23,06,06,4.00
2013,10,23,06,07,3.90
2013,10,23,06,08,3.90
2013,10,23,06,09,3.90
2013,10,23,06,10,3.90
2013,10,23,06,11,3.90
2013,10,23,06,12,3.90
2013,10,23,06,13,3.90
2013,10,23,06,14,3.90
2013,10,23,06,15,3.90
2013,10,23,06,16,3.90
2013,10,23,06,17,3.90
2013,10,23,06,18,3.90
2013,10,23,06,19,3.80
2013,10,23,06,20,3.80
2013,10,23,06,21,3.80
2013,10,23,06,22,3.80
2013,10,23,06,23,3.80
2013,10,23,06,24,3.80
2013,10,23,06,25,3.80
2013,10,23,06,26,3.80
2013,10,23,06,27,3.80
2013,10,23,06,28,3.80
2013,10,23,06,29,3.80
2013,10,23,06,30,3.80
2013,10,23,06,31,3.80
2013,10,23,06,32,3.80
2013,10,23,06,33,3.80
2013,10,23,06,34,3.70
2013,10,23,06,35,3.70
2013,10,23,06,36,3.70
2013,10,23,06,37,3.70
2013,10,23,06,38,3.70
2013,10,23,06,39,3.70
2013,10,23,06,40,3.70
2013,10,23,06,41,3.70
2013,10,23,06,42,3.70
2013,10,23,06,43,3.70
2013,10,23,06,44,3.70
2013,10,23,06,45,3.70
2013,10,23,06,46,3.70
2013,10,23,06,47,3.70
2013,10,23,06,48,3.70
2013,10,23,06,49,3.70
2013,10,23,06,50,3.70
2013,10,23,06,51,3.70
2013,10,23,06,52,3.70
2013,10,23,06,53,3.70
2013,10,23,06,54,3.70
2013,10,23,06,55,3.70
2013,10,23,06,56,3.70
2013,10,23,06,57,3.70
2013,10,23,06,58,3.70
2013,10,23,06,59,3.70
2013,10,23,07,00,3.70
2013,10,23,07,01,3.70
2013,10,23,07,02,3.60
2013,10,23,07,03,3.60
2013,10,23,07,04,3.60
2013,10,23,07,05,3.60
2013,10,23,07,06,3.60
2013,10,23,07,07,3.60
2013,10,23,07,08,3.50
2013,10,23,07,09,3.50
2013,10,23,07,10,3.50
2013,10,23,07,11,3.50
2013,10,23,07,12,3.50
2013,10,23,07,13,3.50
2013,10,23,07,14,3.40
2013,10,23,07,15,3.40
2013,10,23,07,16,3.40
2013,10,23,07,17,3.40
2013,10,23,07,18,3.40
2013,10,23,07,19,3.40
2013,10,23,07,20,3.40
2013,10,23,07,21,3.40
2013,10,23,07,22,3.40
2013,10,23,07,23,3.30
2013,10,23,07,24,3.30
2013,10,23,07,25,3.30
2013,10,23,07,26,3.30
2013,10,23,07,27,3.30
2013,10,23,07,28,3.30
2013,10,23,07,29,3.30
2013,10,23,07,30,3.30
2013,10,23,07,31,3.30
2013,10,23,07,32,3.30
2013,10,23,07,33,3.30
2013,10,23,07,34,3.30
2013,10,23,07,35,3.30
2013,10,23,07,36,3.30
2013,10,23,07,37,3.30
2013,10,23,07,38,3.20
2013,10,23,07,39,3.20
2013,10,23,07,40,3.20
2013,10,23,07,41,3.20
2013,10,23,07,42,3.20
2013,10,23,07,43,3.20
2013,10,23,07,44,3.20
2013,10,23,07,45,3.10
2013,10,23,07,46,3.10
2013,10,23,07,47,3.10
2013,10,23,07,48,3.10
2013,10,23,07,49,3.00
2013,10,23,07,50,3.00
2013,10,23,07,51,3.00
2013,10,23,07,52,3.00
2013,10,23,07,53,3.00
2013,10,23,07,54,2.90
2013,10,23,07,55,2.90
2013,10,23,07,56,2.90
2013,10,23,07,57,2.90
2013,10,23,07,58,2.90
2013,10,23,07,59,2.90
2013,10,23,08,00,2.90
2013,10,23,08,01,3.00
2013,10,23,08,02,3.00
2013,10,23,08,03,3.00
2013,10,23,08,04,3.00
2013,10,23,08,05,3.00
2013,10,23,08,06,3.00
2013,10,23,08,07,3.00
2013,10,23,08,08,3.00
2013,10,23,08,09,3.00
2013,10,23,08,10,3.00
2013,10,23,08,11,3.00
2013,10,23,08,12,3.00
2013,10,23,08,13,3.00
2013,10,23,08,14,3.00
2013,10,23,08,15,3.00
2013,10,23,08,16,3.00
2013,10,23,08,17,3.00
2013,10,23,08,18,3.00
2013,10,23,08,19,3.00
2013,10,23,08,20,3.00
2013,10,23,08,21,3.00
2013,10,23,08,22,3.00
2013,10,23,08,23,3.10
2013,10,23,08,24,3.10
2013,10,23,08,25,3.10
2013,10,23,08,26,3.10
2013,10,23,08,27,3.20
2013,10,23,08,28,3.20
2013,10,23,08,29,3.20
2013,10,23,08,30,3.20
2013,10,23,08,31,3.30
2013,10,23,08,32,3.30
2013,10,23,08,33,3.30
2013,10,23,08,34,3.40
2013,10,23,08,35,3.40
2013,10,23,08,36,3.50
2013,10,23,08,37,3.50
2013,10,23,08,38,3.60
2013,10,23,08,39,3.70
2013,10,23,08,40,3.70
2013,10,23,08,41,3.70
2013,10,23,08,42,3.80
2013,10,23,08,43,3.80
2013,10,23,08,44,3.80
2013,10,23,08,45,3.80
2013,10,23,08,46,3.80
2013,10,23,08,47,3.80
2013,10,23,08,48,3.80
2013,10,23,08,49,3.90
2013,10,23,08,50,3.90
2013,10,23,08,51,3.90
2013,10,23,08,52,4.00
2013,10,23,08,53,4.10
2013,10,23,08,54,4.10
2013,10,23,08,55,4.10
2013,10,23,08,56,4.20
2013,10,23,08,57,4.20
2013,10,23,08,58,4.20
2013,10,23,08,59,4.20
2013,10,23,09,00,4.30
2013,10,23,09,01,4.30
2013,10,23,09,02,4.40
2013,10,23,09,03,4.40
2013,10,23,09,04,4.50
2013,10,23,09,05,4.60
2013,10,23,09,06,4.70
2013,10,23,09,07,4.80
2013,10,23,09,08,4.90
2013,10,23,09,09,5.00
2013,10,23,09,10,5.10
2013,10,23,09,11,5.10
2013,10,23,09,12,5.10
2013,10,23,09,13,5.20
2013,10,23,09,14,5.20
2013,10,23,09,15,5.30
2013,10,23,09,16,5.30
2013,10,23,09,17,5.40
2013,10,23,09,18,5.50
2013,10,23,09,19,5.50
2013,10,23,09,20,5.60
2013,10,23,09,21,5.60
2013,10,23,09,22,5.70
2013,10,23,09,23,5.70
2013,10,23,09,24,5.80
2013,10,23,09,25,5.80
2013,10,23,09,26,5.90
2013,10,23,09,27,5.90
2013,10,23,09,28,5.90
2013,10,23,09,29,6.00
2013,10,23,09,30,6.00
2013,10,23,09,31,6.00
2013,10,23,09,32,6.10
2013,10,23,09,33,6.20
2013,10,23,09,34,6.30
2013,10,23,09,35,6.30
2013,10,23,09,36,6.40
2013,10,23,09,37,6.50
2013,10,23,09,38,6.50
2013,10,23,09,39,6.60
2013,10,23,09,40,6.70
2013,10,23,09,41,6.70
2013,10,23,09,42,6.80
2013,10,23,09,43,6.90
2013,10,23,09,44,6.90
2013,10,23,09,45,7.00
2013,10,23,09,46,7.00
2013,10,23,09,47,7.10
2013,10,23,09,48,7.20
2013,10,23,09,49,7.20
2013,10,23,09,50,7.20
2013,10,23,09,51,7.30
2013,10,23,09,52,7.30
2013,10,23,09,53,7.40
2013,10,23,09,54,7.50
2013,10,23,09,55,7.50
2013,10,23,09,56,7.60
2013,10,23,09,57,7.70
2013,10,23,09,58,7.70
2013,10,23,09,59,7.80
2013,10,23,10,00,7.80
2013,10,23,10,01,7.90
2013,10,23,10,02,7.90
2013,10,23,10,03,8.00
2013,10,23,10,04,8.10
2013,10,23,10,05,8.10
2013,10,23,10,06,8.20
2013,10,23,10,07,8.20
2013,10,23,10,08,8.30
2013,10,23,10,09,8.40
2013,10,23,10,10,8.50
2013,10,23,10,11,8.60
2013,10,23,10,12,8.60
2013,10,23,10,13,8.70
2013,10,23,10,14,8.80
2013,10,23,10,15,8.80
2013,10,23,10,16,8.90
2013,10,23,10,17,9.00
2013,10,23,10,18,9.00
2013,10,23,10,19,9.10
2013,10,23,10,20,9.20
2013,10,23,10,21,9.20
2013,10,23,10,22,9.30
2013,10,23,10,23,9.30
2013,10,23,10,24,9.40
2013,10,23,10,25,9.40
2013,10,23,10,26,9.50
2013,10,23,10,27,9.50
2013,10,23,10,28,9.60
2013,10,23,10,29,9.60
2013,10,23,10,30,9.70
2013,10,23,10,31,9.70
2013,10,23,10,32,9.80
2013,10,23,10,33,9.80
2013,10,23,10,34,9.90
2013,10,23,10,35,9.90
2013,10,23,10,36,10.00
2013,10,23,10,37,10.10
2013,10,23,10,38,10.10
2013,10,23,10,39,10.20
2013,10,23,10,40,10.20
2013,10,23,10,41,10.20
2013,10,23,10,42,10.20
2013,10,23,10,43,10.30
2013,10,23,10,44,10.30
2013,10,23,10,45,10.30
2013,10,23,10,46,10.40
2013,10,23,10,47,10.40
2013,10,23,10,48,10.40
2013,10,23,10,49,10.40
2013,10,23,10,50,10.40
2013,10,23,10,51,10.40
2013,10,23,10,52,10.50
2013,10,23,10,53,10.50
2013,10,23,10,54,10.60
2013,10,23,10,55,10.70
2013,10,23,10,56,10.70
2013,10,23,10,57,10.80
2013,10,23,10,58,10.80
2013,10,23,10,59,10.90
2013,10,23,11,00,10.90
2013,10,23,11,01,11.00
2013,10,23,11,02,11.00
2013,10,23,11,03,11.10
2013,10,23,11,04,11.20
2013,10,23,11,05,11.30
2013,10,23,11,06,11.40
2013,10,23,11,07,11.50
2013,10,23,11,08,11.60
2013,10,23,11,09,11.70
2013,10,23,11,10,11.70
2013,10,23,11,11,11.70
2013,10,23,11,12,11.70
2013,10,23,11,13,11.70
2013,10,23,11,14,11.70
2013,10,23,11,15,11.70
2013,10,23,11,16,11.70
2013,10,23,11,17,11.60
2013,10,23,11,18,11.70
2013,10,23,11,19,11.70
2013,10,23,11,20,11.70
2013,10,23,11,21,11.80
2013,10,23,11,22,11.80
2013,10,23,11,23,11.90
2013,10,23,11,24,11.90
2013,10,23,11,25,11.90
2013,10,23,11,26,12.00
2013,10,23,11,27,12.00
2013,10,23,11,28,12.10
2013,10,23,11,29,12.10
2013,10,23,11,30,12.20
2013,10,23,11,31,12.20
2013,10,23,11,32,12.30
2013,10,23,11,33,12.30
2013,10,23,11,34,12.30
2013,10,23,11,35,12.40
2013,10,23,11,36,12.40
2013,10,23,11,37,12.50
2013,10,23,11,38,12.60
2013,10,23,11,39,12.60
2013,10,23,11,40,12.70
2013,10,23,11,41,12.80
2013,10,23,11,42,12.90
2013,10,23,11,43,13.00
2013,10,23,11,44,13.00
2013,10,23,11,45,13.10
2013,10,23,11,46,13.20
2013,10,23,11,47,13.30
2013,10,23,11,48,13.40
2013,10,23,11,49,13.50
2013,10,23,11,50,13.60
2013,10,23,11,51,13.60
2013,10,23,11,52,13.70
2013,10,23,11,53,13.70
2013,10,23,11,54,13.70
2013,10,23,11,55,13.80
2013,10,23,11,56,13.80
2013,10,23,11,57,13.90
2013,10,23,11,58,13.90
2013,10,23,11,59,13.90
2013,10,23,12,00,13.90
2013,10,23,12,01,13.90
2013,10,23,12,02,14.00
2013,10,23,12,03,14.10
2013,10,23,12,04,14.20
2013,10,23,12,05,14.20
2013,10,23,12,06,14.30
2013,10,23,12,07,14.20
2013,10,23,12,08,14.10
2013,10,23,12,09,14.10
2013,10,23,12,10,14.00
2013,10,23,12,11,14.00
2013,10,23,12,12,14.00
2013,10,23,12,13,13.90
2013,10,23,12,14,14.00
2013,10,23,12,15,14.00
2013,10,23,12,16,14.00
2013,10,23,12,17,14.10
2013,10,23,12,18,14.10
2013,10,23,12,19,14.10
2013,10,23,12,20,14.10
2013,10,23,12,21,14.20
2013,10,23,12,22,14.30
2013,10,23,12,23,14.30
2013,10,23,12,24,14.30
2013,10,23,12,25,14.30
2013,10,23,12,26,14.30
2013,10,23,12,27,14.30
2013,10,23,12,28,14.30
2013,10,23,12,29,14.30
2013,10,23,12,30,14.30
2013,10,23,12,31,14.30
2013,10,23,12,32,14.30
2013,10,23,12,33,14.30
2013,10,23,12,34,14.30
2013,10,23,12,35,14.40
2013,10,23,12,36,14.40
2013,10,23,12,37,14.40
2013,10,23,12,38,14.50
2013,10,23,12,39,14.60
2013,10,23,12,40,14.60
2013,10,23,12,41,14.70
2013,10,23,12,42,14.80
2013,10,23,12,43,15.00
2013,10,23,12,44,15.00
2013,10,23,12,45,15.00
2013,10,23,12,46,15.00
2013,10,23,12,47,15.00
2013,10,23,12,48,14.90
2013,10,23,12,49,15.00
2013,10,23,12,50,15.00
2013,10,23,12,51,15.00
2013,10,23,12,52,15.00
2013,10,23,12,53,15.00
2013,10,23,12,54,15.00
2013,10,23,12,55,15.00
2013,10,23,12,56,15.00
2013,10,23,12,57,15.00
2013,10,23,12,58,15.00
2013,10,23,12,59,15.00
2013,10,23,13,00,15.10
2013,10,23,13,01,15.20
2013,10,23,13,02,15.30
2013,10,23,13,03,15.30
2013,10,23,13,04,15.30
2013,10,23,13,05,15.30
2013,10,23,13,06,15.40
2013,10,23,13,07,15.40
2013,10,23,13,08,15.50
2013,10,23,13,09,15.50
2013,10,23,13,10,15.50
2013,10,23,13,11,15.50
2013,10,23,13,12,15.50
2013,10,23,13,13,15.50
2013,10,23,13,14,15.60
2013,10,23,13,15,15.60
2013,10,23,13,16,15.60
2013,10,23,13,17,15.70
2013,10,23,13,18,15.80
2013,10,23,13,19,15.90
2013,10,23,13,20,16.00
2013,10,23,13,21,16.00
2013,10,23,13,22,16.00
2013,10,23,13,23,15.90
2013,10,23,13,24,15.80
2013,10,23,13,25,15.80
2013,10,23,13,26,15.90
2013,10,23,13,27,15.90
2013,10,23,13,28,16.00
2013,10,23,13,29,16.10
2013,10,23,13,30,16.10
2013,10,23,13,31,16.20
2013,10,23,13,32,16.30
2013,10,23,13,33,16.40
2013,10,23,13,34,16.60
2013,10,23,13,35,16.70
2013,10,23,13,36,16.80
2013,10,23,13,37,16.80
2013,10,23,13,38,16.60
2013,10,23,13,39,16.40
2013,10,23,13,40,16.30
2013,10,23,13,41,16.20
2013,10,23,13,42,16.10
2013,10,23,13,43,16.10
2013,10,23,13,44,16.10
2013,10,23,13,45,16.00
2013,10,23,13,46,16.00
2013,10,23,13,47,16.00
2013,10,23,13,48,16.00
2013,10,23,13,49,16.10
2013,10,23,13,50,16.20
2013,10,23,13,51,16.20
2013,10,23,13,52,16.30
2013,10,23,13,53,16.30
2013,10,23,13,54,16.30
2013,10,23,13,55,16.10
2013,10,23,13,56,16.00
2013,10,23,13,57,15.90
2013,10,23,13,58,15.80
2013,10,23,13,59,15.70
2013,10,23,14,00,15.70
2013,10,23,14,01,15.70
2013,10,23,14,02,15.70
2013,10,23,14,03,15.60
2013,10,23,14,04,15.60
2013,10,23,14,05,15.60
2013,10,23,14,06,15.50
2013,10,23,14,07,15.50
2013,10,23,14,08,15.40
2013,10,23,14,09,15.30
2013,10,23,14,10,15.20
2013,10,23,14,11,15.00
2013,10,23,14,12,15.00
2013,10,23,14,13,15.00
2013,10,23,14,14,15.00
2013,10,23,14,15,15.00
2013,10,23,14,16,15.00
2013,10,23,14,17,15.00
2013,10,23,14,18,15.00
2013,10,23,14,19,15.00
2013,10,23,14,20,15.10
2013,10,23,14,21,15.20
2013,10,23,14,22,15.30
2013,10,23,14,23,15.30
2013,10,23,14,24,15.20
2013,10,23,14,25,15.20
2013,10,23,14,26,15.20
2013,10,23,14,27,15.20
2013,10,23,14,28,15.10
2013,10,23,14,29,15.00
2013,10,23,14,30,15.00
2013,10,23,14,31,15.00
2013,10,23,14,32,15.00
2013,10,23,14,33,15.00
2013,10,23,14,34,15.00
2013,10,23,14,35,15.20
2013,10,23,14,36,15.20
2013,10,23,14,37,15.20
2013,10,23,14,38,15.20
2013,10,23,14,39,15.20
2013,10,23,14,40,15.20
2013,10,23,14,41,15.20
2013,10,23,14,42,15.20
2013,10,23,14,43,15.30
2013,10,23,14,44,15.40
2013,10,23,14,45,15.50
2013,10,23,14,46,15.50
2013,10,23,14,47,15.60
2013,10,23,14,48,15.60
2013,10,23,14,49,15.60
2013,10,23,14,50,15.50
2013,10,23,14,51,15.60
2013,10,23,14,52,15.60
2013,10,23,14,53,15.60
2013,10,23,14,54,15.70
2013,10,23,14,55,15.80
2013,10,23,14,56,15.80
2013,10,23,14,57,15.70
2013,10,23,14,58,15.70
2013,10,23,14,59,15.70
2013,10,23,15,00,15.70
2013,10,23,15,01,15.70
2013,10,23,15,02,15.70
2013,10,23,15,03,15.80
2013,10,23,15,04,15.80
2013,10,23,15,05,15.90
2013,10,23,15,06,15.90
2013,10,23,15,07,15.90
2013,10,23,15,08,16.00
2013,10,23,15,09,16.10
2013,10,23,15,10,16.10
2013,10,23,15,11,16.20
2013,10,23,15,12,16.20
2013,10,23,15,13,16.20
2013,10,23,15,14,16.20
2013,10,23,15,15,16.10
2013,10,23,15,16,16.10
2013,10,23,15,17,16.10
2013,10,23,15,18,16.00
2013,10,23,15,19,16.00
2013,10,23,15,20,16.00
2013,10,23,15,21,16.00
2013,10,23,15,22,16.10
2013,10,23,15,23,16.10
2013,10,23,15,24,16.00
2013,10,23,15,25,15.90
2013,10,23,15,26,15.90
2013,10,23,15,27,15.90
2013,10,23,15,28,15.90
2013,10,23,15,29,15.90
2013,10,23,15,30,16.00
2013,10,23,15,31,16.00
2013,10,23,15,32,16.10
2013,10,23,15,33,16.10
2013,10,23,15,34,16.20
2013,10,23,15,35,16.20
2013,10,23,15,36,16.20
2013,10,23,15,37,16.20
2013,10,23,15,38,16.10
2013,10,23,15,39,15.90
2013,10,23,15,40,15.80
2013,10,23,15,41,15.80
2013,10,23,15,42,15.80
2013,10,23,15,43,15.70
2013,10,23,15,44,15.60
2013,10,23,15,45,15.60
2013,10,23,15,46,15.50
2013,10,23,15,47,15.40
2013,10,23,15,48,15.30
2013,10,23,15,49,15.30
2013,10,23,15,50,15.30
2013,10,23,15,51,15.30
2013,10,23,15,52,15.20
2013,10,23,15,53,15.20
2013,10,23,15,54,15.00
2013,10,23,15,55,15.00
2013,10,23,15,56,15.00
2013,10,23,15,57,15.00
2013,10,23,15,58,15.00
2013,10,23,15,59,15.00
2013,10,23,16,00,15.00
2013,10,23,16,01,15.00
2013,10,23,16,02,15.00
2013,10,23,16,03,14.90
2013,10,23,16,04,14.90
2013,10,23,16,05,14.80
2013,10,23,16,06,14.70
2013,10,23,16,07,14.70
2013,10,23,16,08,14.70
2013,10,23,16,09,14.70
2013,10,23,16,10,14.70
2013,10,23,16,11,14.70
2013,10,23,16,12,14.70
2013,10,23,16,13,14.70
2013,10,23,16,14,14.70
2013,10,23,16,15,14.70
2013,10,23,16,16,14.70
2013,10,23,16,17,14.70
2013,10,23,16,18,14.70
2013,10,23,16,19,14.70
2013,10,23,16,20,14.70
2013,10,23,16,21,14.80
2013,10,23,16,22,14.90
2013,10,23,16,23,14.90
2013,10,23,16,24,15.00
2013,10,23,16,25,15.00
2013,10,23,16,26,15.00
2013,10,23,16,27,15.00
2013,10,23,16,28,15.00
2013,10,23,16,29,15.00
2013,10,23,16,30,15.00
2013,10,23,16,31,15.00
2013,10,23,16,32,15.00
2013,10,23,16,33,15.00
2013,10,23,16,34,15.00
2013,10,23,16,35,15.00
2013,10,23,16,36,15.00
2013,10,23,16,37,15.00
2013,10,23,16,38,15.00
2013,10,23,16,39,15.00
2013,10,23,16,40,15.00
2013,10,23,16,41,15.00
2013,10,23,16,42,15.00
2013,10,23,16,43,15.00
2013,10,23,16,44,15.00
2013,10,23,16,45,15.00
2013,10,23,16,46,15.00
2013,10,23,16,47,15.00
2013,10,23,16,48,15.00
2013,10,23,16,49,15.00
2013,10,23,16,50,15.00
2013,10,23,16,51,15.00
2013,10,23,16,52,15.00
2013,10,23,16,53,15.00
2013,10,23,16,54,15.10
2013,10,23,16,55,15.10
2013,10,23,16,56,15.20
2013,10,23,16,57,15.30
2013,10,23,16,58,15.30
2013,10,23,16,59,15.30
2013,10,23,17,00,15.30
2013,10,23,17,01,15.30
2013,10,23,17,02,15.30
2013,10,23,17,03,15.30
2013,10,23,17,04,15.30
2013,10,23,17,05,15.20
2013,10,23,17,06,15.20
2013,10,23,17,07,15.20
2013,10,23,17,08,15.20
2013,10,23,17,09,15.30
2013,10,23,17,10,15.30
2013,10,23,17,11,15.30
2013,10,23,17,12,15.30
2013,10,23,17,13,15.30
2013,10,23,17,14,15.30
2013,10,23,17,15,15.20
2013,10,23,17,16,15.20
2013,10,23,17,17,15.20
2013,10,23,17,18,15.10
2013,10,23,17,19,15.10
2013,10,23,17,20,15.00
2013,10,23,17,21,15.00
2013,10,23,17,22,15.00
2013,10,23,17,23,15.00
2013,10,23,17,24,15.00
2013,10,23,17,25,14.90
2013,10,23,17,26,14.80
2013,10,23,17,27,14.70
2013,10,23,17,28,14.60
2013,10,23,17,29,14.50
2013,10,23,17,30,14.50
2013,10,23,17,31,14.40
2013,10,23,17,32,14.30
2013,10,23,17,33,14.30
2013,10,23,17,34,14.30
2013,10,23,17,35,14.20
2013,10,23,17,36,14.20
2013,10,23,17,37,14.10
2013,10,23,17,38,14.10
2013,10,23,17,39,14.10
2013,10,23,17,40,14.00
2013,10,23,17,41,14.00
2013,10,23,17,42,13.90
2013,10,23,17,43,13.90
2013,10,23,17,44,13.80
2013,10,23,17,45,13.80
2013,10,23,17,46,13.70
2013,10,23,17,47,13.70
2013,10,23,17,48,13.60
2013,10,23,17,49,13.60